Location: *
(37.5724°S, 58.0067°E)
Time: 11:29:40
(UTC+00:00)

Helios 1A Rocket - Pass Details

Date: 26 September 2020
Orbit: 563 x 586 km, 98.3° (Epoch: 29 October)

Event Time Altitude Azimuth Distance (km) Brightness Sun altitude
Rises 14:58:16 0° 162° (SSE) 2,801 6.3 -10.7°
Reaches altitude 10° 15:00:29 10° 156° (SSE) 1,897 5.4 -11.1°
Maximum altitude 15:04:29 50° 80° (E) 736 3.0 -11.9°
Drops below altitude 10° 15:08:27 10° 3° (N) 1,881 5.4 -12.7°
Sets 15:10:38 0° 358° (N) 2,774 6.3 -13.1°
